Weather History for Whiteman AFB, MO

Change the Weather History Date:

Wednesday, March 6, 2013

  Actual Average Record
Temperature  
Mean Temperature 27 °F -  
Max Temperature 32 °F 46 °F 95 °F (2006)
Min Temperature 21 °F 27 °F 21 °F (2001)
Degree Days  
Heating Degree Days 38    
Moisture  
Dew Point 20 °F    
Average Humidity 73    
Maximum Humidity 94    
Minimum Humidity 64    
Precipitation  
Precipitation 0.00 in - - ()
Sea Level Pressure  
Sea Level Pressure 30.39 in    
Wind  
Wind Speed 11 mph (NNE)    
Max Wind Speed 20 mph    
Max Gust Speed 28 mph    
Visibility 10 miles    
Events      
Averages and records for this station are not official NWS values.
T = Trace of Precipitation, MM = Missing Value Source: NWS Daily Summary

Daily Weather History Graph

Daily Weather History Graph

Search for Another Location

Airport:

Trip Planner

Search our weather history database for the weather conditions in past years. The results will help you decide how hot, cold, wet, or windy it might be!

Date:

Astronomy

Mar. 06, 2013 Rise Set
Actual Time 6:38 AM CST 6:12 PM CST
Civil Twilight 6:12 AM CST 6:39 PM CST
Nautical Twilight 5:41 AM CST 7:09 PM CST
Astronomical Twilight 5:10 AM CST 7:40 PM CST
Moon 2:45 AM CST (3/6) 12:57 PM CST (3/6)
Length of Visible Light 12h 26m
Length of Day
11h 33m
Waning Crescent, 29% of the Moon is Illuminated
Mar 6
Waning Crescent
Mar 11
New
Mar 19
First Quarter
Mar 27
Full
Apr 2
Last Quarter

Hourly Weather History & Observations

Time (CST) Temp. Windchill Dew Point Humidity Pressure Visibility Wind Dir Wind Speed Gust Speed Precip Events Conditions
12:03 AM 28.4 °F 16.2 °F 19.4 °F 69% 30.30 in 10.0 mi NNW 17.3 mph 25.3 mph N/A   Overcast
12:58 AM 28.2 °F 15.9 °F 19.2 °F 69% 30.36 in 10.0 mi NNW 17.3 mph - N/A   Overcast
1:33 AM 28.4 °F 17.0 °F 19.4 °F 69% 30.33 in 10.0 mi NNW 15.0 mph - N/A   Overcast
1:53 AM 26.6 °F 14.7 °F 19.4 °F 74% 30.33 in 10.0 mi NNW 15.0 mph - N/A   Overcast
1:58 AM 27.5 °F 15.9 °F 18.9 °F 70% 30.37 in 10.0 mi NNW 15.0 mph - N/A   Overcast
2:43 AM 26.6 °F 15.7 °F 19.4 °F 74% 30.33 in 10.0 mi NNW 12.7 mph - N/A   Overcast
2:58 AM 27.1 °F 15.4 °F 19.0 °F 72% 30.38 in 10.0 mi NNW 15.0 mph - N/A   Overcast
3:58 AM 27.0 °F 13.5 °F 18.3 °F 70% 30.39 in 10.0 mi NNW 19.6 mph 27.6 mph N/A   Overcast
4:13 AM 26.6 °F 15.7 °F 19.4 °F 74% 30.35 in 10.0 mi NNW 12.7 mph - N/A   Overcast
4:58 AM 26.6 °F 18.2 °F 18.3 °F 71% 30.40 in 10.0 mi NW 8.1 mph - N/A   Overcast
5:58 AM 25.5 °F 16.9 °F 18.1 °F 74% 30.42 in 10.0 mi NW 8.1 mph - N/A   Mostly Cloudy
6:58 AM 23.9 °F 15.0 °F 18.0 °F 78% 30.44 in 10.0 mi NW 8.1 mph - N/A   Clear
7:58 AM 24.8 °F 14.6 °F 18.3 °F 76% 30.44 in 10.0 mi NNW 10.4 mph - N/A   Clear
8:58 AM 26.4 °F 16.0 °F 19.0 °F 74% 30.46 in 10.0 mi North 11.5 mph - N/A   Clear
9:48 AM 26.6 °F 16.2 °F 19.4 °F 74% 30.42 in 10.0 mi NNE 11.5 mph - N/A   Mostly Cloudy
9:58 AM 27.1 °F 16.9 °F 19.6 °F 73% 30.46 in 10.0 mi NNE 11.5 mph - N/A   Mostly Cloudy
10:58 AM 27.9 °F 18.4 °F 19.9 °F 72% 30.46 in 10.0 mi North 10.4 mph - N/A   Overcast
11:58 AM 29.3 °F 23.2 °F 20.5 °F 70% 30.45 in 10.0 mi NNE 5.8 mph - N/A   Overcast
12:58 PM 31.3 °F 25.6 °F 21.4 °F 67% 30.44 in 10.0 mi NNE 5.8 mph - N/A   Mostly Cloudy
1:03 PM 32.0 °F 28.7 °F 21.2 °F 64% 30.40 in 10.0 mi North 3.5 mph - N/A   Scattered Clouds
1:15 PM 32.0 °F 27.5 °F 21.2 °F 64% 30.43 in 10.0 mi ENE 4.6 mph - N/A   Mostly Cloudy
1:18 PM 32.0 °F 27.5 °F 21.2 °F 64% 30.43 in 10.0 mi NE 4.6 mph - N/A   Mostly Cloudy
1:39 PM 32.0 °F 27.5 °F 21.2 °F 64% 30.39 in 10.0 mi NE 4.6 mph - N/A   Scattered Clouds
1:58 PM 32.2 °F 28.9 °F 21.6 °F 65% 30.42 in 10.0 mi ENE 3.5 mph - N/A   Scattered Clouds
2:58 PM 32.2 °F - 21.4 °F 64% 30.42 in 10.0 mi ENE 2.3 mph - N/A   Clear
3:58 PM 32.2 °F 27.7 °F 23.0 °F 69% 30.40 in 10.0 mi North 4.6 mph - N/A   Clear
4:58 PM 31.8 °F 25.4 °F 22.5 °F 68% 30.38 in 10.0 mi NE 6.9 mph - N/A   Clear
5:58 PM 30.2 °F 25.4 °F 22.1 °F 72% 30.37 in 10.0 mi NE 4.6 mph - N/A   Clear
6:58 PM 26.8 °F - 21.6 °F 81% 30.38 in 10.0 mi East 2.3 mph - N/A   Clear
7:58 PM 25.7 °F - 21.0 °F 82% 30.37 in 10.0 mi East 2.3 mph - N/A   Clear
8:58 PM 24.4 °F - 20.5 °F 85% 30.38 in 10.0 mi Calm Calm - N/A   Clear
9:58 PM 23.4 °F - 20.3 °F 88% 30.37 in 10.0 mi East 2.3 mph - N/A   Clear
10:58 PM 22.5 °F - 19.4 °F 88% 30.34 in 10.0 mi ENE 2.3 mph - N/A   Clear
11:58 PM 21.4 °F - 19.9 °F 94% 30.34 in 10.0 mi ESE 2.3 mph - N/A   Clear